sat.trackr.live / text

‹ back to catalog

KUIPER-00317

NORAD 68600 · 2026-072AD

PAYLOAD ACTIVE UNKNOWN

§ Identity

Operator
Country
US
Launch date
2026-04-04
Launch site
AFETR
Launch vehicle
Mass (kg)
RCS (m²)

External: N2YO · Heavens-Above · Gunter

§ Orbital elements

Epoch: 2026-09-19T22:09:18.425088Z

Period
97.30 min
Inclination
51.9003°
Eccentricity
0.0000919
Mean motion
14.79930997 rev/d
Perigee alt
628.9 km
Apogee alt
630.2 km
Semi-major
7,007.7 km
B*
5.0618e-5
RAAN
116.7315°
Arg perigee
103.4830°
Mean anomaly
256.6235°
Rev number
2,542

§ Raw data

KUIPER-003171 68600U 26072AD  26262.92312992  .00000165  00000+0  50618-4 0  99972 68600  51.9003 116.7315 0000919 103.4830 256.6235 14.79930997 25422

JSON: /api/v1/satellites/68600 · /tle

For live sub-satellite position, see the globe view (requires WebGL).

§ Visibility from observer

Set your observer location to see the next 7 days of passes ≥ 10°. The values pass through the URL so the page stays shareable.

No JS? Fill the form by hand. The geolocation button needs JavaScript.